Address 0x56b7afe3a2035e442441eced6e882a1ae3a29327

 

Overview

Balance:
0.004160698510718821 BNB

BNB Value:
$1.43 (@ $344.72/BNB)

Token:
Txn Hash
Block
From
To
Value [Txn Fee]
0x8c6ee187690d27c6d8cd17e944c40680ab97ec5a21f0030c74ac149976d1b1b767522452021-04-21 6:34:4552 days 7 hrs ago0x56b7afe3a2035e442441eced6e882a1ae3a29327OUT BUSD-T Stablecoin0 BNB0.000105695
0x91d2f19cf7efc958b53393b980dd752887d82eeaffb35468fa6cf3d2beae8a7f67521322021-04-21 6:29:0652 days 7 hrs ago0x56b7afe3a2035e442441eced6e882a1ae3a29327OUT PancakeSwap: Router0.01 BNB0.00049413
0xc932956051a91438d85ac488e499ea6f1ddab37396c681aa2e740442e37c631567521182021-04-21 6:28:2452 days 7 hrs ago0x56b7afe3a2035e442441eced6e882a1ae3a29327OUT PancakeSwap: Router0.2851 BNB0.00055505
0x8a78b0fafb6395447f7a2565dc21752582b66856e1d66140840d586391460c2e67520992021-04-21 6:27:2752 days 7 hrs ago0x56b7afe3a2035e442441eced6e882a1ae3a29327OUT PancakeSwap: Router0 BNB0.00074639
0xe63d86cf2f58a59bf7f29acfc69692d98258af49b5fd798ebd8a2f628659837d67520622021-04-21 6:25:3652 days 7 hrs ago0x56b7afe3a2035e442441eced6e882a1ae3a29327OUT PancakeSwap: Router0 BNB0.00073913
0xd21a4f0b4fa030262b3aa51c432ba601aeacc6891e836a0aef4c7fd6d5b13b2b67520492021-04-21 6:24:5752 days 7 hrs ago0x56b7afe3a2035e442441eced6e882a1ae3a29327OUT PancakeSwap: Router0 BNB0.00073949
0x8796629eb6e47247929dcc3fcc59aa66e7d2e270a3529bbc1133f100776ab7ed67516932021-04-21 6:07:0952 days 7 hrs ago0x56b7afe3a2035e442441eced6e882a1ae3a29327OUT PancakeSwap: Router0 BNB0.00068565
0xe172013df057cd0f20ff9241c7ae3e90889525f9f686fdda869bb3c1b00e708267516122021-04-21 6:03:0552 days 7 hrs ago0x56b7afe3a2035e442441eced6e882a1ae3a29327OUT PancakeSwap: Router0 BNB0.000759015
0xd2889b56b7ee16a569f50fde0bf481ffc1aa791bff6dd7bdf8972bdd1b22f0c667515702021-04-21 6:00:5952 days 7 hrs ago0x56b7afe3a2035e442441eced6e882a1ae3a29327OUT PancakeSwap: Router0 BNB0.0007734
0x217ddb1537f2f3c21cd692e3225d403694e0a5249290e8e173b1313ac8e55aa467515552021-04-21 6:00:1452 days 7 hrs ago0x56b7afe3a2035e442441eced6e882a1ae3a29327OUT 0x71ebae37c75458a7d4bb6e6485ee2462abe5cdaf0 BNB0.000222625
0x64accaf26469cf7906cd9bc23944cc2f223ab9a535787aac92f2a354bfeb831b67515482021-04-21 5:59:5352 days 7 hrs ago0x56b7afe3a2035e442441eced6e882a1ae3a29327OUT PancakeSwap: Router0 BNB0.000765625
0xe192def61f69febb36c8a0f5e4037ea67db2916830443b2be73070d7e3f6cf0d67514892021-04-21 5:56:5652 days 7 hrs ago0x56b7afe3a2035e442441eced6e882a1ae3a29327OUT 0x163de35e4956b36a1ac824c97dfd3c4abaf8bd920 BNB0.00022131
0xe18fee63a8eec629f94480881899442fcacb2849af5b3806a6c9765697b50e0b67514812021-04-21 5:56:3252 days 7 hrs ago0x56b7afe3a2035e442441eced6e882a1ae3a29327OUT PancakeSwap: Router0 BNB0.00085523
0x4de2d09031e33b42fb2cf15797a5b91642d22a34d5a2705822e517fc841feb3067501152021-04-21 4:48:1452 days 8 hrs ago0x56b7afe3a2035e442441eced6e882a1ae3a29327OUT PancakeSwap: Router0 BNB0.00073937
0x202e5b9403cbad2abcf6898a16deb0ddddc28af15d1d78eb2a7ce251b2d7f20867499772021-04-21 4:41:2052 days 9 hrs ago0x56b7afe3a2035e442441eced6e882a1ae3a29327OUT PancakeSwap: Router0 BNB0.00073943
0x889e67361298648effb955bcbe57d83577edf5db79b349331f6d70680517ac1b67489872021-04-21 3:51:4752 days 9 hrs ago0x56b7afe3a2035e442441eced6e882a1ae3a29327OUT PancakeSwap: Router0 BNB0.00073943
0x7e144f05f1c67ae0cf2e41fada6754dc811816684c47865f75be7f8a704a39ec67488422021-04-21 3:44:3252 days 10 hrs ago0x56b7afe3a2035e442441eced6e882a1ae3a29327OUT PancakeSwap: Router0 BNB0.00073937
0xab93735ca5efac5dbab981ed533fd68a9232cfa7e81f7f474fbe27484bbac52767485742021-04-21 3:31:0852 days 10 hrs ago0x56b7afe3a2035e442441eced6e882a1ae3a29327OUT PancakeSwap: Router0 BNB0.00073937
0xa9dccd0c1b9e7969c00e9199555eb28a9b4f70c9e1aa9c9abec190ffac7773b767485152021-04-21 3:28:1152 days 10 hrs ago0x56b7afe3a2035e442441eced6e882a1ae3a29327OUT PancakeSwap: Router0 BNB0.00073937
0x9f1e41a73075ea3eb2da4200718bccea4b7966e076cd193d9250c2ec58b2278467484812021-04-21 3:26:2952 days 10 hrs ago0x56b7afe3a2035e442441eced6e882a1ae3a29327OUT PancakeSwap: Router0 BNB0.00073937
0xd7651a7541189f3c92cb6fd5b3463d1fa9d4c591aeabfded3ffd04a70a9fefa667483412021-04-21 3:19:0052 days 10 hrs ago0x56b7afe3a2035e442441eced6e882a1ae3a29327OUT PancakeSwap: Router0 BNB0.00073937
0x9ea8abb0d480eb7cbe2450620ed29d09f0701864d8a90ece23f70d03b051839367483322021-04-21 3:18:3352 days 10 hrs ago0x56b7afe3a2035e442441eced6e882a1ae3a29327OUT PancakeSwap: Router0 BNB0.00073937
0x2e2d33878aee5057ca8f47af92d11b2480dbe66d6d52a9fd54dd248ee47a261567483212021-04-21 3:18:0052 days 10 hrs ago0x56b7afe3a2035e442441eced6e882a1ae3a29327OUT PancakeSwap: Router0 BNB0.00073937
0x0b618eec9168c9465c7670378fd6645d26532a822931efeea1f6d0424dc4166967480452021-04-21 3:04:1252 days 10 hrs ago0x56b7afe3a2035e442441eced6e882a1ae3a29327OUT PancakeSwap: Router0 BNB0.00073937
0x58ff808cc47928bdbf2d70330cd058bea2b819731f5f1842d02a25b401be6e0e67477592021-04-21 2:49:5452 days 10 hrs ago0x56b7afe3a2035e442441eced6e882a1ae3a29327OUT PancakeSwap: Router0 BNB0.00073937
[ Download CSV Export 
Latest 11 internal transactions
Parent Txn Hash Block From To Value
0x01688608722b4693cb1a5e77877040526c9cac75eac8ae4d29c155697f57888e67018802021-04-19 12:21:4854 days 1 hr ago PancakeSwap: Router0x56b7afe3a2035e442441eced6e882a1ae3a293270.646365610149736341 BNB
0x24ee81b77d4eee8c302cc1a340dd70839dcac6c49d7f6ef860449e0b2441da2667016362021-04-19 12:09:3654 days 1 hr ago PancakeSwap: Router0x56b7afe3a2035e442441eced6e882a1ae3a293270.682057216238761252 BNB
0x49173620d1cbe8e1076f724483da994013bc2c8f7695f07dffa80543b48a2c3e67010112021-04-19 11:38:2154 days 2 hrs ago PancakeSwap: Router0x56b7afe3a2035e442441eced6e882a1ae3a293270.354383204115081466 BNB
0x4aebe91121a0c707ef2eca76813b452fdabcbd8608ebc0e70e4a52105b1a2c7967008272021-04-19 11:29:0954 days 2 hrs ago PancakeSwap: Router0x56b7afe3a2035e442441eced6e882a1ae3a293270.404380490511444126 BNB
0x0dbb23f185948ab01eef333ff7cb2639b825ffb85214996c2032f4888a12eab967006892021-04-19 11:22:1154 days 2 hrs ago PancakeSwap: Router0x56b7afe3a2035e442441eced6e882a1ae3a293270.621785756324336396 BNB
0xb554aa7d8e33fc6d32fde8b3b676e518ef487241d6f4c57cb897604b53cc4cad67000872021-04-19 10:51:4454 days 2 hrs ago PancakeSwap: Router0x56b7afe3a2035e442441eced6e882a1ae3a293270.59335095492567941 BNB
0x464981d1607b1bc479647a6df9450311cd7b0471baf4839a6154a1688f78aaef66999552021-04-19 10:45:0854 days 3 hrs ago PancakeSwap: Router0x56b7afe3a2035e442441eced6e882a1ae3a293270.652139313388111854 BNB
0xaddd6132039eeb23785bef3c662806789c581f8890924636e698cd60bed7cfbd66998582021-04-19 10:40:1754 days 3 hrs ago PancakeSwap: Router0x56b7afe3a2035e442441eced6e882a1ae3a293270.583705948953780491 BNB
0x8bb6377083d87b9b4ce14726f0b52896993a254ad22d3f5cda5cef64eb9abff666994162021-04-19 10:18:1154 days 3 hrs ago PancakeSwap: Router0x56b7afe3a2035e442441eced6e882a1ae3a293270.964683250983922216 BNB
0xc23dea057705fd8322465803a1f34b5371b9c27958db96bf31d8e7538bfe525966993092021-04-19 10:12:5054 days 3 hrs ago PancakeSwap: Router0x56b7afe3a2035e442441eced6e882a1ae3a293270.651853954624684304 BNB
0xc9f91818fb039b44b97a6ebbb15bdf4f0509aca6706f3aa5af4a1990cdcf509e66992482021-04-19 10:09:4754 days 3 hrs ago PancakeSwap: Router0x56b7afe3a2035e442441eced6e882a1ae3a293270.285631793295180965 BNB
[ Download CSV Export 
Loading

Contract Name:
0 BNB

Compiler Version
0

Optimization Enabled:
0 BNB

Other Settings:
-NA-
Block Transaction Gas Used Reward
Age Block Fee Address BC Fee Address Voting Power Jailed Incoming
Block Uncle Number Difficulty Gas Used Reward
Loading
Loading
Make sure to use the "Vote Down" button for any spammy posts, and the "Vote Up" for interesting conversations.